Location: São Paulo
(23.5507°S, 46.6334°W)
Time: 07:48:21
(UTC-03:00)

Transit 2A - Pass Details

Date: 16 February 2026
Orbit: 590 x 954 km, 66.7° (Epoch: 10 March)

Event Time Altitude Azimuth Distance (km) Brightness Sun altitude
Rises 00:23:30 0° 336° (NNW) 3,074 - -54.1°
Reaches altitude 10° 00:25:55 10° 335° (NNW) 2,109 - -54.1°
Maximum altitude 00:30:39 80° 247° (WSW) 653 - -54.0°
Drops below altitude 10° 00:35:04 10° 160° (SSE) 1,976 - -53.9°
Sets 00:37:16 0° 158° (SSE) 2,864 - -53.9°
